Regional Weather Roundup
Issued by NWS Burlington, VT

Home | Current Version | Previous Version | Text Only | Print | Product List | Glossary On
Versions: 1 2 3 4 5 6 7 8 9 10 11 12 13 14 15 16 17 18 19 20 21 22 23 24 25 26 27 28 29 30 31 32 33 34 35 36 37 38 39 40 41 42 43 44 45 46 47 48 49 50
000
ASUS41 KBTV 200310
RWRBTV
VERMONT REGIONAL WEATHER ROUNDUP
NATIONAL WEATHER SERVICE BURLINGTON VT
1000 PM EST FRI DEC 19 2014

NOTE: "FAIR" INDICATES FEW OR NO CLOUDS BELOW 12,000 FEET WITH NO
SIGNIFICANT WEATHER AND/OR OBSTRUCTIONS TO VISIBILITY.

* THESE REPORTS ARE NOT UNDER NWS QUALITY CONTROL AND/OR DO NOT
  REPORT WEATHER SUCH AS PRECIPITATION AND FOG.

VTZ001>019-200400-
_____VERMONT_____


CITY           SKY/WX    TMP DP  RH WIND       PRES   REMARKS
BURLINGTON     PTCLDY    20  13  74 NE5       30.21S
MONTPELIER     CLOUDY    18  14  84 N6        30.18R
MORRISVILLE    CLOUDY    20  15  81 NE3       30.20R
ST. JOHNSBURY*   N/A     21  15  78 MISG      30.16R
LYNDONVILLE*   FAIR      17  12  82 NW3       30.15R
MIDDLEBURY*    FAIR      18  14  84 CALM      30.19R
RUTLAND*       PTCLDY    21  16  79 NW6       30.16R
SPRINGFIELD    PTCLDY    23  16  74 N8        30.16R
HIGHGATE*      FAIR      12  10  93 CALM      30.23S
NEWPORT*       FAIR       9   6  88 CALM      30.17S
BENNINGTON     CLOUDY    25  18  74 N7        30.14R
SUTTON*          N/A     14 N/A N/A MISG        N/A

_____LAKE CHAMPLAIN_____


CITY           SKY/WX    TMP DP  RH WIND       PRES   REMARKS
COLCHESTER RF*   N/A     25  21  86 E12         N/A  WCI  14

$$

NYZ007-026>031-035-052-083-200400-
_____NORTHERN NEW YORK_____


CITY           SKY/WX    TMP DP  RH WIND       PRES   REMARKS
PLATTSBURGH    CLEAR     13  10  88 NW3       30.22S
SARANAC LAKE   CLOUDY    15 N/A N/A CALM      30.12R
MASSENA        PTCLDY    13  10  88 SW6       30.26S
OGDENSBURG*    CLEAR     12  10  92 CALM      30.25S
POTSDAM*       CLEAR     16  16 100 CALM      30.24S
WATERTOWN      CLEAR     18  12  77 E3        30.25S
FT DRUM        CLEAR     14  11  87 NE2       30.22S
ALBANY         CLOUDY    27  19  72 NW12      30.20R WCI  17
GLENS FALLS    CLOUDY    26  19  74 E7        30.20R

$$
NHZ002-005-011-200400-
_____NEW HAMPSHIRE_____


CITY           SKY/WX    TMP DP  RH WIND       PRES   REMARKS
LEBANON        CLOUDY    25  17  72 N7        30.15R
KEENE          CLOUDY    27  18  69 N9        30.14R
MT WASHINGTON  MOCLDY    21  10  63 E21         N/A  WCI   6
PLYMOUTH       FAIR      25  22  90 W7        30.12R
WHITEFIELD     CLOUDY    21  15  78 N5        30.14R

$$

_____REGIONAL QUEBEC LOCATIONS_____


CITY           SKY/WX    TMP DP  RH WIND       PRES   REMARKS
MONTREAL       CLEAR     14   9  79 W7        30.24R
QUEBEC CITY    CLEAR      9   5  85 CALM      30.18R
SHERBROOKE     CLEAR      7   5  92 VRB2      30.18R

_____REGIONAL ONTARIO LOCATIONS_____


CITY           SKY/WX    TMP DP  RH WIND       PRES   REMARKS
OTTAWA         CLEAR     12   9  85 SW6       30.24R

______KEY______
VSB  - VISIBILITY IN MILES
WCI  - WIND CHILL INDEX
HX   - HEAT INDEX
$$
NNNN


USA.gov is the U.S. government's official web portal to all federal, state and local government web resources and services.